Location: Unspecified
(47.0835°N, 11.5736°E)
Time: 15:49:57
(UTC+01:00)

Tiangong - Visible Passes

Search period start: 24 January 2022 00:00
Search period end: 03 February 2022 00:00
Orbit: 383 x 386 km, 41.5° (Epoch: 23 January)

Date Brightness Start Highest point End Pass type
(mag) Time Alt. Az. Time Alt. Az. Time Alt. Az.
27 Jan 3.9 19:24:27 10° SSW 19:24:50 12° SSW 19:24:50 12° SSW visible
28 Jan 3.5 18:25:46 10° S 18:27:01 12° SSE 18:28:03 11° SE visible
29 Jan 2.9 19:01:04 10° SW 19:03:23 21° S 19:03:23 21° S visible
30 Jan 3.3 18:01:49 10° SSW 18:03:57 17° SSE 18:06:04 10° ESE visible
30 Jan 3.6 19:37:27 10° WSW 19:38:41 19° SW 19:38:41 19° SW visible
31 Jan 2.6 18:37:49 10° SW 18:40:32 26° S 18:41:44 20° SE visible
01 Feb 2.6 19:14:22 10° WSW 19:16:57 28° S 19:16:57 28° S visible
02 Feb 2.6 18:14:35 10° WSW 18:17:24 29° S 18:19:58 11° ESE visible
02 Feb 3.9 19:51:13 10° WSW 19:52:10 16° SW 19:52:10 16° SW visible
